Location: Breitenfeld
(46.8500°N, 15.6333°E)
Time: 12:43:27
(UTC+00:00)

USA 234 - Pass Details

Date: 09 April 2020
Orbit: 1102 x 1106 km, 123.0° (Epoch: 14 May)

Event Time Altitude Azimuth Distance (km) Brightness Sun altitude
Rises 21:33:11 0° 54° (NE) 3,925 6.3 -31.9°
Reaches altitude 10° 21:35:41 10° 51° (NE) 2,966 5.6 -32.1°
Maximum altitude 21:42:08 62° 333° (NNW) 1,227 3.6 -32.5°
Drops below altitude 10° 21:48:33 10° 254° (WSW) 2,960 5.5 -33.0°
Sets 21:51:03 0° 251° (WSW) 3,916 6.2 -33.1°
